Tracking 18840 objects as of 18-November-2017
HD Live streaming from Space Station
objects crossing your sky now

ORBCOMM FM 32

Track ORBCOMM FM 32 now!
10-day predictions
ORBCOMM FM 32 is classified as:


NORAD ID: 25982
Int'l Code: 1999-065C
Perigee: 788.6 km
Apogee: 795.7 km
Inclination: 45.0 °
Period: 100.6 minutes
Semi major axis: 7163 km
RCS: 0.8421 m2 (medium)
Launch date: December 4, 1999
Source: ORBCOMM (ORB)
Launch site: AIR FORCE EASTERN TEST RANGE (AFETR)
aabbcc
Your satellite tracking list
Your tracking list is empty




NASA's NSSDC Master Catalog

Two Line Element Set (TLE):
1 25982U 99065C   17321.89072373 +.00000143 +00000-0 +10478-3 0  9999
2 25982 045.0178 151.3316 0004963 305.8598 152.9667 14.32021795937675
Source of the keplerian elements: AFSPC